This is the latest recevied weather packets stored in our database for station/object VE7OTD. If no packets are shown the sender has not sent any weather packets the latest 10 day(s).
| Time | Temp. | Humidity | Pressure | Rain* | Wind** | Luminosity | Snow |
|---|---|---|---|---|---|---|---|
| 1778144474 | 10.56° C | 74% | 1020.4 hPa | 0 mm | - | - | - |
| 1778142674 | 10.56° C | 74% | 1020.2 hPa | 0 mm | - | - | - |
| 1778140844 | 10.56° C | 74% | 1019.9 hPa | 0 mm | - | - | - |
| 1778139028 | 11.11° C | 78% | 1019.8 hPa | 0 mm | - | - | - |
| 1778137214 | 11.11° C | 79% | 1019.7 hPa | 0 mm | - | - | - |
| 1778135398 | 11.11° C | 80% | 1019.5 hPa | 0 mm | - | - | - |
| 1778133584 | 11.67° C | 78% | 1019.3 hPa | 0 mm | - | - | - |
| 1778131768 | 12.78° C | 75% | 1019.1 hPa | 0 mm | - | - | - |
| 1778129954 | 13.33° C | 77% | 1019.1 hPa | 0 mm | - | - | - |
| 1778128139 | 13.33° C | 88% | 1018.9 hPa | 0 mm | - | - | - |
| 1778126323 | 13.89° C | 87% | 1018.7 hPa | 0 mm | - | - | - |
| 1778124509 | 14.44° C | 86% | 1018.5 hPa | 0 mm | - | - | - |
| 1778122694 | 14.44° C | 83% | 1018.5 hPa | 0 mm | - | - | - |
| 1778120879 | 15° C | 80% | 1018.4 hPa | 0 mm | - | - | - |
| 1778119063 | 15.56° C | 78% | 1018.5 hPa | 0 mm | - | - | - |
| 1778117249 | 16.67° C | 74% | 1018.4 hPa | 0 mm | - | - | - |
| 1778115434 | 16.11° C | 74% | 1018.4 hPa | 0 mm | - | - | - |
| 1778113618 | 16.11° C | 75% | 1018.4 hPa | 0 mm | - | - | - |
| 1778111803 | 16.11° C | 75% | 1018.4 hPa | 0 mm | - | - | - |
| 1778109988 | 16.67° C | 72% | 1018.5 hPa | 0 mm | - | - | - |
| 1778108174 | 16.67° C | 71% | 1018.7 hPa | 0 mm | - | - | - |
| 1778106358 | 16.67° C | 73% | 1018.8 hPa | 0 mm | - | - | - |
| 1778104543 | 16.11° C | 72% | 1018.8 hPa | 0 mm | - | - | - |
| 1778102729 | 16.67° C | 67% | 1018.8 hPa | 0 mm | - | - | - |
| 1778100913 | 16.11° C | 67% | 1018.9 hPa | 0 mm | - | - | - |
* Rain latest 24 hours (hover to see other rain measurements)
** Current wind speed in m/s (hover to see current wind gust speed)